When you browse on this site, cookies collect data to enhance your experience and personalize the content and advertising you see.
Visit our Privacy Policy to learn more. By continuing to use the site, you agree to this use of cookies and data.
  • In Romania
  • List of Countries
  • For 7 days
  • Water Temperature
  • Satellite Maps
  • Weather Map
  • Weather Widgets
  • user-avatar
    Login

    Hourly Weather Reno

    Today, 22 May, Wednesday

    Time Temperature Precipitation Wind Pressure Humidity
    00:00 +4°C° 0 mm 2 mps 636 mmHg 76%
    01:00 +4°C° 0 mm 2 mps 636 mmHg 78%
    02:00 +4°C° 0 mm 2 mps 636 mmHg 80%
    03:00 +4°C° 0 mm 2 mps 636 mmHg 82%
    04:00 +4°C° 0 mm 2 mps 636 mmHg 84%
    05:00 +4°C° 0 mm 2 mps 637 mmHg 80%
    06:00 +5°C° 0 mm 2 mps 637 mmHg 77%
    07:00 +5°C° 0 mm 3 mps 637 mmHg 73%
    08:00 +7°C° 0 mm 3 mps 638 mmHg 67%
    09:00 +8°C° 0 mm 4 mps 638 mmHg 62%
    10:00 +10°C° 0 mm 4 mps 638 mmHg 56%
    11:00 +10°C° 0.1 mm 5 mps 639 mmHg 54%
    12:00 +12°C° 0.1 mm 5 mps 639 mmHg 51%
    13:00 +13°C° 0.1 mm 6 mps 639 mmHg 49%
    14:00 +13°C° 0.1 mm 6 mps 639 mmHg 50%
    15:00 +13°C° 0.1 mm 6 mps 639 mmHg 51%
    16:00 +13°C° 0.1 mm 6 mps 639 mmHg 52%
    17:00 +11°C° 0.1 mm 6 mps 638 mmHg 55%
    18:00 +12°C° 0.1 mm 5 mps 638 mmHg 59%
    19:00 +10°C° 0.1 mm 5 mps 638 mmHg 62%
    20:00 +10°C° 0.1 mm 4 mps 638 mmHg 66%
    21:00 +10°C° 0.1 mm 4 mps 638 mmHg 70%
    22:00 +9°C° 0.1 mm 3 mps 638 mmHg 74%
    23:00 +8°C° 0 mm 3 mps 638 mmHg 77%

    Tomorrow, 23 May, Thursday

    Time Temperature Precipitation Wind Pressure Humidity
    00:00 +8°C° 0 mm 2 mps 638 mmHg 79%
    01:00 +7°C° 0 mm 2 mps 637 mmHg 81%
    02:00 +7°C° 0 mm 2 mps 637 mmHg 83%
    03:00 +6°C° 0 mm 2 mps 637 mmHg 84%
    04:00 +6°C° 0 mm 2 mps 637 mmHg 85%
    05:00 +7°C° 0 mm 2 mps 637 mmHg 83%
    06:00 +8°C° 0 mm 2 mps 638 mmHg 81%
    07:00 +8°C° 0 mm 2 mps 638 mmHg 78%
    08:00 +9°C° 0.1 mm 2 mps 638 mmHg 74%
    09:00 +10°C° 0.1 mm 3 mps 639 mmHg 69%
    10:00 +11°C° 0.1 mm 3 mps 639 mmHg 65%
    11:00 +12°C° 0.3 mm 4 mps 640 mmHg 59%
    12:00 +14°C° 0.3 mm 4 mps 640 mmHg 53%
    13:00 +15°C° 0.3 mm 4 mps 640 mmHg 48%
    14:00 +15°C° 0.1 mm 5 mps 641 mmHg 44%
    15:00 +16°C° 0.1 mm 5 mps 641 mmHg 40%
    16:00 +16°C° 0.1 mm 5 mps 641 mmHg 36%
    17:00 +15°C° 0 mm 4 mps 641 mmHg 41%
    18:00 +14°C° 0 mm 4 mps 641 mmHg 46%
    19:00 +13°C° 0 mm 3 mps 641 mmHg 50%
    20:00 +13°C° 0 mm 2 mps 641 mmHg 54%
    21:00 +12°C° 0 mm 2 mps 641 mmHg 58%
    22:00 +10°C° 0 mm 2 mps 641 mmHg 63%
    23:00 +10°C° 0 mm 2 mps 641 mmHg 64%

    Day after tomorrow, 24 May, Friday

    Time Temperature Precipitation Wind Pressure Humidity
    00:00 +9°C° 0 mm 2 mps 641 mmHg 65%
    01:00 +9°C° 0 mm 2 mps 641 mmHg 67%
    02:00 +9°C° 0 mm 2 mps 641 mmHg 67%
    03:00 +8°C° 0 mm 2 mps 641 mmHg 68%
    04:00 +8°C° 0 mm 2 mps 641 mmHg 69%
    05:00 +9°C° 0 mm 2 mps 642 mmHg 64%
    06:00 +12°C° 0 mm 2 mps 642 mmHg 60%
    07:00 +13°C° 0 mm 1 mps 643 mmHg 55%
    08:00 +15°C° 0 mm 1 mps 643 mmHg 49%
    09:00 +18°C° 0 mm 1 mps 644 mmHg 44%
    10:00 +17°C° 0 mm 0 mps 644 mmHg 38%
    11:00 +19°C° 0.1 mm 1 mps 643 mmHg 40%
    12:00 +19°C° 0.1 mm 1 mps 643 mmHg 41%
    13:00 +18°C° 0.1 mm 2 mps 643 mmHg 43%
    14:00 +17°C° 0.6 mm 3 mps 642 mmHg 49%
    15:00 +17°C° 0.6 mm 3 mps 641 mmHg 56%
    16:00 +15°C° 0.6 mm 4 mps 641 mmHg 62%
    17:00 +14°C° 0.5 mm 4 mps 641 mmHg 66%
    18:00 +13°C° 0.5 mm 3 mps 640 mmHg 69%
    19:00 +13°C° 0.5 mm 3 mps 640 mmHg 73%
    20:00 +12°C° 0.1 mm 3 mps 640 mmHg 75%
    21:00 +12°C° 0.1 mm 3 mps 640 mmHg 77%
    22:00 +11°C° 0.1 mm 3 mps 640 mmHg 79%
    23:00 +12°C° 0.3 mm 2 mps 640 mmHg 80%

    25 May, Saturday

    Time Temperature Precipitation Wind Pressure Humidity
    00:00 +12°C° 0.3 mm 2 mps 640 mmHg 80%
    01:00 +10°C° 0.3 mm 2 mps 639 mmHg 80%
    02:00 +11°C° 0.7 mm 1 mps 639 mmHg 80%
    03:00 +11°C° 0.7 mm 1 mps 639 mmHg 79%
    04:00 +10°C° 0.7 mm 0 mps 639 mmHg 79%
    05:00 +11°C° 0.5 mm 1 mps 639 mmHg 78%
    06:00 +11°C° 0.5 mm 1 mps 639 mmHg 77%
    07:00 +10°C° 0.5 mm 2 mps 639 mmHg 76%
    08:00 +13°C° 0.2 mm 2 mps 640 mmHg 70%
    09:00 +14°C° 0.2 mm 2 mps 640 mmHg 63%
    10:00 +14°C° 0.2 mm 3 mps 640 mmHg 56%
    11:00 +16°C° 0.8 mm 3 mps 640 mmHg 55%
    12:00 +16°C° 0.8 mm 2 mps 640 mmHg 55%
    13:00 +16°C° 0.8 mm 2 mps 640 mmHg 54%
    14:00 +16°C° 1.6 mm 2 mps 640 mmHg 59%
    15:00 +15°C° 1.6 mm 2 mps 640 mmHg 63%
    16:00 +14°C° 1.6 mm 2 mps 639 mmHg 68%
    17:00 +13°C° 0.9 mm 2 mps 639 mmHg 72%
    18:00 +13°C° 0.9 mm 2 mps 639 mmHg 77%
    19:00 +12°C° 0.9 mm 2 mps 640 mmHg 81%
    20:00 +12°C° 0.5 mm 2 mps 640 mmHg 82%
    21:00 +12°C° 0.5 mm 1 mps 640 mmHg 83%
    22:00 +11°C° 0.5 mm 1 mps 640 mmHg 83%
    23:00 +11°C° 0 mm 1 mps 640 mmHg 84%

    26 May, Sunday

    Time Temperature Precipitation Wind Pressure Humidity
    00:00 +11°C° 0 mm 1 mps 640 mmHg 84%
    01:00 +10°C° 0 mm 1 mps 640 mmHg 84%
    02:00 +10°C° 0 mm 1 mps 639 mmHg 84%
    03:00 +9°C° 0 mm 1 mps 639 mmHg 85%
    04:00 +8°C° 0 mm 0 mps 639 mmHg 85%
    05:00 +9°C° 0 mm 0 mps 640 mmHg 79%
    06:00 +10°C° 0 mm 0 mps 640 mmHg 73%
    07:00 +11°C° 0 mm 0 mps 640 mmHg 67%
    08:00 +14°C° 0.1 mm 1 mps 641 mmHg 60%
    09:00 +15°C° 0.1 mm 1 mps 641 mmHg 52%
    10:00 +16°C° 0.1 mm 1 mps 642 mmHg 45%
    11:00 +18°C° 0.6 mm 1 mps 642 mmHg 44%
    12:00 +18°C° 0.6 mm 1 mps 642 mmHg 43%
    13:00 +18°C° 0.6 mm 2 mps 642 mmHg 43%
    14:00 +17°C° 1 mm 2 mps 641 mmHg 47%
    15:00 +16°C° 1 mm 2 mps 641 mmHg 51%
    16:00 +15°C° 1 mm 2 mps 641 mmHg 55%
    17:00 +15°C° 1.3 mm 2 mps 641 mmHg 61%
    18:00 +13°C° 1.3 mm 3 mps 641 mmHg 66%
    19:00 +12°C° 1.3 mm 3 mps 641 mmHg 71%
    20:00 +11°C° 0.2 mm 3 mps 641 mmHg 75%
    21:00 +10°C° 0.2 mm 3 mps 641 mmHg 78%
    22:00 +10°C° 0.2 mm 3 mps 641 mmHg 81%
    23:00 +9°C° 0 mm 3 mps 641 mmHg 82%

    27 May, Monday

    Time Temperature Precipitation Wind Pressure Humidity
    00:00 +9°C° 0 mm 2 mps 641 mmHg 83%
    01:00 +8°C° 0 mm 2 mps 641 mmHg 84%
    02:00 +8°C° 0 mm 2 mps 641 mmHg 85%
    03:00 +8°C° 0 mm 2 mps 641 mmHg 86%
    04:00 +8°C° 0 mm 2 mps 642 mmHg 87%
    05:00 +9°C° 0 mm 2 mps 642 mmHg 83%
    06:00 +9°C° 0 mm 2 mps 643 mmHg 80%
    07:00 +10°C° 0 mm 3 mps 643 mmHg 76%
    08:00 +12°C° 0 mm 3 mps 644 mmHg 69%
    09:00 +13°C° 0 mm 3 mps 644 mmHg 62%
    10:00 +14°C° 0 mm 3 mps 645 mmHg 55%
    11:00 +15°C° 0.1 mm 4 mps 645 mmHg 53%
    12:00 +16°C° 0.1 mm 5 mps 645 mmHg 51%
    13:00 +16°C° 0.1 mm 5 mps 645 mmHg 50%
    14:00 +16°C° 0 mm 6 mps 645 mmHg 49%
    15:00 +16°C° 0 mm 6 mps 645 mmHg 49%
    16:00 +16°C° 0 mm 6 mps 645 mmHg 48%
    17:00 +15°C° 0 mm 6 mps 645 mmHg 53%
    18:00 +14°C° 0 mm 5 mps 644 mmHg 58%
    19:00 +13°C° 0 mm 4 mps 644 mmHg 63%
    20:00 +12°C° 0 mm 3 mps 644 mmHg 68%
    21:00 +11°C° 0 mm 3 mps 644 mmHg 73%
    22:00 +10°C° 0 mm 2 mps 644 mmHg 78%
    23:00 +10°C° 0 mm 2 mps 644 mmHg 79%
    Show more